FW6164 Weather Reports


time (UTC)temp
C
wind
direction
speed
KPH
gust
KPH
rain 1hr
cm
rain 24hr
cm
rain mn
cm
humidity
%
barometer
mb
20260508115404 10 340 3.2 4.8 0.00 0.48 0.08 67 1013.6
20260508114903 10 272 1.6 4.8 0.00 0.48 0.08 67 1013.6
20260508114404 10 255 3.2 8.0 0.00 0.48 0.08 64 1013.4
20260508113904 11 264 1.6 9.7 0.00 0.48 0.08 68 1013.4
20260508113404 11 278 1.6 4.8 0.00 0.48 0.08 70 1013.2
20260508112904 11 289 3.2 9.7 0.00 0.48 0.08 65 1013.1
20260508112404 11 301 3.2 11.3 0.00 0.48 0.08 66 1012.8
20260508111903 10 284 3.2 11.3 0.00 0.48 0.08 69 1012.9
20260508111404 10 351 3.2 11.3 0.00 0.48 0.08 68 1012.7
20260508110903 10 242 0.0 3.2 0.00 0.48 0.08 71 1012.5
20260508110404 9 252 1.6 4.8 0.00 0.48 0.08 72 1012.6
20260508105404 11 299 1.6 4.8 0.00 0.48 0.08 69 1012.2
20260508104904 10 297 3.2 4.8 0.00 0.48 0.08 69 1012.1
20260508104404 10 269 1.6 4.8 0.00 0.48 0.08 71 1012.2
20260508103903 10 253 3.2 4.8 0.00 0.48 0.08 71 1012.2
20260508103404 10 352 3.2 9.7 0.00 0.48 0.08 70 1012.1
20260508102903 10 288 1.6 14.5 0.00 0.48 0.08 70 1012.0
20260508102404 10 289 1.6 4.8 0.00 0.48 0.08 73 1011.9
20260508101404 10 322 3.2 11.3 0.00 0.48 0.08 69 1011.7
20260508095904 11 235 3.2 11.3 0.00 0.48 0.08 69 1011.5
20260508095404 11 256 4.8 11.3 0.00 0.48 0.08 70 1011.4
20260508094903 10 354 3.2 11.3 0.00 0.48 0.08 70 1011.3
20260508094404 10 266 3.2 8.0 0.00 0.48 0.08 72 1011.2
20260508093904 10 271 3.2 14.5 0.00 0.48 0.08 73 1011.1
20260508093404 9 264 1.6 9.7 0.00 0.48 0.08 78 1011.1
20260508092904 9 273 1.6 4.8 0.00 0.48 0.08 79 1011.0
20260508092404 9 269 1.6 9.7 0.00 0.48 0.08 78 1010.9
20260508091904 9 265 1.6 4.8 0.00 0.48 0.08 81 1010.7
20260508091404 9 328 1.6 9.7 0.00 0.48 0.08 81 1010.7
20260508090903 9 299 0.0 0.0 0.00 0.48 0.08 77 1010.7
20260508090404 10 320 1.6 4.8 0.00 0.48 0.08 75 1010.8
20260508085904 10 278 3.2 8.0 0.03 0.48 0.08 71 1010.6
20260508085403 11 269 1.6 4.8 0.03 0.48 0.08 70 1010.3
20260508084404 11 314 1.6 3.2 0.03 0.48 0.08 70 1010.2
20260508083903 10 317 3.2 12.9 0.03 0.48 0.08 71 1010.1
20260508083404 10 288 1.6 11.3 0.03 0.48 0.08 76 1010.1
20260508082904 10 274 1.6 4.8 0.03 0.48 0.08 78 1009.9
20260508082403 9 319 1.6 4.8 0.03 0.48 0.08 79 1009.8
20260508081904 10 265 1.6 11.3 0.03 0.48 0.08 78 1009.8
20260508081404 10 241 1.6 4.8 0.03 0.48 0.08 80 1009.7
20260508080904 9 226 0.0 4.8 0.03 0.48 0.08 82 1009.6
20260508080403 9 272 0.0 4.8 0.03 0.48 0.08 83 1009.4
20260508075904 8 276 0.0 1.6 0.00 0.46 0.05 81 1009.4
20260508075404 9 316 0.0 1.6 0.00 0.46 0.05 81 1009.2
20260508074903 9 278 0.0 4.8 0.00 0.46 0.05 82 1009.2
20260508074405 9 272 1.6 4.8 0.00 0.46 0.05 81 1008.8
20260508073904 8 309 0.0 3.2 0.00 0.46 0.05 83 1008.7
20260508073403 8 300 1.6 4.8 0.00 0.46 0.05 83 1008.7
20260508072904 9 289 1.6 4.8 0.00 0.46 0.05 84 1008.6
20260508072404 8 281 3.2 4.8 0.00 0.46 0.05 84 1008.5
20260508071904 8 301 3.2 4.8 0.00 0.46 0.05 85 1008.4
20260508071404 8 298 0.0 4.8 0.00 0.46 0.05 87 1008.4
20260508070904 8 348 1.6 4.8 0.00 0.46 0.05 87 1008.3
20260508070404 8 280 1.6 4.8 0.00 0.46 0.05 87 1008.3
20260508065904 8 314 0.0 3.2 0.00 0.46 0.05 87 1008.3
20260508065404 8 330 1.6 3.2 0.00 0.46 0.05 86 1008.2
20260508064905 8 346 1.6 8.0 0.00 0.46 0.05 86 1008.2
20260508064404 8 263 3.2 12.9 0.00 0.46 0.05 86 1008.0
20260508063904 8 310 3.2 8.0 0.00 0.46 0.05 87 1007.8
20260508063404 8 331 3.2 4.8 0.00 0.46 0.05 87 1007.7
20260508062903 8 299 1.6 3.2 0.00 0.46 0.05 87 1007.6
20260508062404 8 280 3.2 4.8 0.00 0.46 0.05 87 1007.4
20260508060904 7 313 0.0 4.8 0.00 0.46 0.05 88 1007.4
20260508060404 7 355 0.0 1.6 0.00 0.46 0.05 88 1007.2
20260508055404 7 260 1.6 3.2 0.00 0.46 0.05 89 1007.0
20260508054904 7 266 1.6 3.2 0.00 0.46 0.05 88 1007.1
20260508054404 7 183 1.6 4.8 0.00 0.46 0.05 88 1006.8
20260508053904 7 177 1.6 4.8 0.00 0.46 0.05 89 1006.8
20260508053403 7 298 1.6 4.8 0.00 0.46 0.05 88 1006.8
20260508052904 7 222 1.6 3.2 0.00 0.46 0.05 88 1006.7
20260508052404 7 192 1.6 3.2 0.00 0.46 0.05 87 1006.6
20260508051904 7 196 3.2 9.7 0.00 0.46 0.05 87 1006.6
20260508051404 7 183 0.0 4.8 0.00 0.46 0.05 87 1006.7
20260508050904 7 186 0.0 1.6 0.00 0.46 0.05 87 1006.5
20260508050404 7 190 1.6 3.2 0.00 0.46 0.05 87 1006.5
20260508045904 7 198 0.0 4.8 0.00 0.46 0.05 87 1006.5
20260508045403 7 188 0.0 4.8 0.00 0.46 0.05 87 1006.5
20260508044904 7 184 1.6 8.0 0.00 0.46 0.05 87 1006.4
20260508044404 7 200 1.6 3.2 0.00 0.46 0.05 87 1006.4
20260508043904 7 186 1.6 3.2 0.00 0.46 0.05 87 1006.3
20260508042904 7 183 1.6 8.0 0.00 0.46 0.05 87 1006.3
20260508041904 7 167 0.0 9.7 0.03 0.46 0.05 87 1006.2
20260508041404 7 166 3.2 4.8 0.03 0.46 0.05 87 1006.2
20260508040905 7 161 1.6 4.8 0.03 0.46 0.05 87 1006.1
20260508040405 7 169 1.6 4.8 0.03 0.46 0.05 88 1006.2
20260508035904 7 170 0.0 4.8 0.03 0.46 0.05 88 1006.1
20260508034904 7 247 1.6 3.2 0.03 0.46 0.05 88 1005.9
20260508032903 7 243 1.6 3.2 0.03 0.46 0.05 87 1005.9
20260508032404 7 238 0.0 3.2 0.03 0.46 0.05 87 1005.9
20260508031904 7 237 1.6 4.8 0.00 0.43 0.03 87 1005.9
20260508031403 7 259 0.0 3.2 0.00 0.43 0.03 87 1005.8
20260508030904 7 259 0.0 1.6 0.00 0.43 0.03 87 1005.8
20260508030404 7 249 0.0 11.3 0.00 0.43 0.03 86 1005.7
20260508025403 7 168 1.6 9.7 0.03 0.43 0.03 87 1005.6
20260508024404 7 217 1.6 4.8 0.03 0.43 0.03 87 1005.3
20260508023404 7 175 3.2 9.7 0.03 0.43 0.03 88 1005.3
20260508022404 7 264 1.6 3.2 0.03 0.43 0.03 88 1005.3
20260508021904 7 251 1.6 4.8 0.03 0.43 0.03 88 1005.3
20260508021404 7 280 1.6 11.3 0.03 0.43 0.03 87 1005.3
20260508020904 7 176 3.2 8.0 0.03 0.43 0.03 86 1005.4
20260508020404 7 146 1.6 9.7 0.03 0.43 0.03 86 1005.3
20260508015904 7 48 3.2 12.9 0.00 0.41 0.00 85 1005.2
20260508014904 7 184 0.0 4.8 0.00 0.41 0.00 85 1005.1
20260508014404 7 174 3.2 11.3 0.00 0.41 0.00 85 1005.0
20260508013904 7 169 3.2 19.3 0.00 0.41 0.00 85 1004.9
20260508013403 7 175 4.8 9.7 0.00 0.41 0.00 86 1004.9
20260508012904 7 174 3.2 12.9 0.00 0.41 0.00 86 1004.9
20260508012403 7 233 1.6 4.8 0.00 0.41 0.00 86 1005.0
20260508011904 7 178 1.6 11.3 0.00 0.41 0.00 86 1004.9
20260508011404 7 165 3.2 12.9 0.00 0.41 0.00 86 1004.8
20260508010904 7 176 1.6 9.7 0.00 0.41 0.00 86 1004.8
20260508010404 7 219 1.6 4.8 0.00 0.41 0.00 85 1004.8
20260508005904 7 285 1.6 11.3 0.00 0.41 0.00 85 1004.7
20260508005404 7 170 3.2 12.9 0.00 0.41 0.00 85 1004.7
20260508004904 7 346 3.2 11.3 0.00 0.41 0.00 85 1004.5
20260508003903 7 280 3.2 11.3 0.00 0.41 0.00 85 1004.3
20260508002904 7 182 3.2 14.5 0.00 0.41 0.00 86 1004.2
20260508002405 7 197 4.8 11.3 0.00 0.41 0.00 86 1004.1
20260508000904 7 176 3.2 11.3 0.00 0.41 0.00 86 1004.2
20260508000405 7 178 3.2 9.7 0.00 0.41 0.00 86 1004.2
20260507235904 7 171 4.8 11.3 0.00 0.41 0.00 86 1004.1
20260507235405 7 178 3.2 11.3 0.03 0.41 0.00 86 1004.1
20260507234404 7 203 3.2 9.7 0.03 0.41 0.00 87 1004.0
20260507233904 7 173 3.2 12.9 0.03 0.41 0.00 87 1004.1
20260507233403 7 168 8.0 16.1 0.03 0.41 0.00 87 1004.1
20260507232904 7 173 4.8 9.7 0.03 0.41 0.00 87 1004.0
20260507231904 7 154 4.8 11.3 0.03 0.41 0.00 87 1004.2
20260507231404 7 221 4.8 20.9 0.03 0.41 0.00 87 1004.1
20260507230904 7 251 3.2 16.1 0.03 0.41 0.00 87 1004.1
20260507230404 7 0 1.6 14.5 0.03 0.41 0.00 86 1004.1
20260507225904 8 159 3.2 9.7 0.03 0.41 0.41 85 1004.2
20260507225404 8 294 3.2 9.7 0.03 0.41 0.41 84 1004.4
20260507224404 8 187 3.2 19.3 0.00 0.38 0.38 82 1004.0
20260507223904 8 167 3.2 12.9 0.00 0.38 0.38 82 1004.0
20260507223404 7 217 3.2 11.3 0.00 0.38 0.38 82 1004.1
20260507222904 7 169 1.6 11.3 0.00 0.38 0.38 83 1004.0
20260507222404 8 197 3.2 12.9 0.00 0.38 0.38 83 1004.1
20260507221904 8 155 3.2 12.9 0.00 0.38 0.38 84 1004.0
20260507220904 8 282 3.2 9.7 0.00 0.38 0.38 84 1004.0
20260507220404 8 163 3.2 14.5 0.00 0.38 0.38 84 1004.0
20260507215904 8 164 4.8 16.1 0.00 0.38 0.38 84 1004.0
20260507215404 8 230 3.2 12.9 0.00 0.38 0.38 84 1004.0
20260507214903 8 198 3.2 11.3 0.00 0.38 0.38 83 1004.1
20260507213905 8 191 4.8 11.3 0.00 0.38 0.38 81 1004.1
20260507213404 8 183 4.8 12.9 0.00 0.38 0.38 81 1004.0
20260507212905 8 197 4.8 12.9 0.00 0.38 0.38 82 1003.9
20260507211904 8 295 1.6 4.8 0.00 0.38 0.38 82 1004.0
20260507210904 8 175 8.0 12.9 0.00 0.38 0.38 82 1004.0
20260507210404 8 166 3.2 12.9 0.00 0.38 0.38 82 1004.1
20260507205904 8 219 3.2 12.9 0.00 0.38 0.38 83 1004.0
20260507205404 8 177 4.8 12.9 0.00 0.38 0.38 83 1004.0
20260507204905 8 195 8.0 20.9 0.00 0.38 0.38 83 1004.0
20260507204404 8 173 3.2 16.1 0.00 0.38 0.38 83 1004.0
20260507203904 8 174 3.2 14.5 0.00 0.38 0.38 83 1003.9
20260507203404 8 198 1.6 4.8 0.00 0.38 0.38 84 1003.9
20260507202904 8 161 3.2 9.7 0.00 0.38 0.38 84 1003.9
20260507202404 8 256 1.6 8.0 0.00 0.38 0.38 83 1003.9
20260507201904 8 245 1.6 4.8 0.00 0.38 0.38 82 1003.9
20260507201404 9 276 0.0 3.2 0.00 0.38 0.38 81 1003.9
20260507200904 9 165 3.2 14.5 0.00 0.38 0.38 80 1003.9
20260507200403 9 184 3.2 9.7 0.00 0.38 0.38 80 1003.7
20260507195904 9 164 4.8 19.3 0.00 0.38 0.38 79 1003.7
20260507195404 9 176 4.8 14.5 0.00 0.38 0.38 78 1003.8
20260507194903 9 173 6.4 14.5 0.00 0.38 0.38 78 1003.7
20260507194403 9 179 4.8 14.5 0.00 0.38 0.38 78 1003.8
20260507193904 9 158 4.8 14.5 0.00 0.38 0.38 79 1003.7
20260507193404 9 168 4.8 19.3 0.00 0.38 0.38 79 1003.7
20260507192904 9 179 4.8 12.9 0.00 0.38 0.38 80 1003.7
20260507192405 9 170 6.4 11.3 0.00 0.38 0.38 80 1003.7
20260507191904 9 182 3.2 16.1 0.00 0.38 0.38 79 1003.7
20260507190404 9 195 6.4 20.9 0.00 0.38 0.38 82 1003.6
20260507185904 9 144 4.8 19.3 0.00 0.38 0.38 83 1003.7
20260507184903 10 181 4.8 16.1 0.00 0.38 0.38 84 1003.6
20260507184403 9 180 4.8 24.1 0.00 0.38 0.38 83 1003.7
20260507182904 9 187 9.7 24.1 0.00 0.38 0.38 84 1003.6
20260507181904 9 168 4.8 19.3 0.00 0.38 0.38 83 1003.6
20260507181404 10 174 4.8 20.9 0.00 0.38 0.38 83 1003.6
20260507180904 10 200 6.4 20.9 0.00 0.38 0.38 82 1003.6
20260507175904 10 165 8.0 19.3 0.00 0.38 0.38 82 1003.5
20260507175404 10 180 8.0 16.1 0.00 0.38 0.38 82 1003.5
20260507174904 10 195 8.0 20.9 0.00 0.38 0.38 82 1003.5
20260507174404 10 191 6.4 12.9 0.00 0.38 0.38 82 1003.6
20260507173904 10 160 4.8 11.3 0.00 0.38 0.38 83 1003.7
20260507173404 10 175 6.4 19.3 0.00 0.38 0.38 83 1003.7
20260507172904 10 161 4.8 19.3 0.00 0.38 0.38 84 1003.6
20260507172404 10 182 4.8 14.5 0.00 0.38 0.38 84 1003.7
20260507171904 10 167 3.2 20.9 0.00 0.38 0.38 84 1003.8
20260507171404 10 171 6.4 20.9 0.00 0.38 0.38 84 1003.7
20260507170904 10 178 8.0 20.9 0.00 0.38 0.38 85 1003.8
20260507170404 10 174 4.8 19.3 0.00 0.38 0.38 85 1003.8
20260507165904 10 186 4.8 22.5 0.00 0.38 0.38 85 1003.9
20260507164904 10 151 4.8 12.9 0.00 0.38 0.38 87 1003.8
20260507164404 10 171 4.8 24.1 0.00 0.38 0.38 87 1003.9
20260507163404 10 156 6.4 16.1 0.03 0.38 0.38 87 1003.8
20260507162904 10 148 6.4 19.3 0.03 0.38 0.38 87 1003.9
20260507162404 10 202 4.8 12.9 0.03 0.38 0.38 88 1003.8
20260507161404 9 191 6.4 14.5 0.13 0.38 0.38 88 1003.9
20260507160904 9 253 4.8 25.7 0.36 0.38 0.38 89 1003.8
20260507160403 9 185 6.4 14.5 0.36 0.38 0.38 89 1004.0
20260507155404 9 133 4.8 19.3 0.38 0.38 0.38 90 1004.0
20260507154904 9 194 4.8 14.5 0.38 0.38 0.38 90 1003.9
20260507154404 8 268 4.8 33.8 0.38 0.38 0.38 90 1004.1
20260507153904 8 166 4.8 19.3 0.36 0.36 0.36 90 1004.1
20260507153404 8 156 6.4 19.3 0.36 0.36 0.36 90 1004.2
20260507152903 8 181 3.2 16.1 0.36 0.36 0.36 90 1004.3
20260507152404 9 161 3.2 12.9 0.36 0.36 0.36 90 1004.2
20260507151904 9 161 4.8 14.5 0.30 0.30 0.30 90 1004.3
20260507151406 1 168 0.0 3.2 0.25 0.25 0.25 90 1016.7